BEIJING 1 1 28890U 05043A 26167.87716088 .00000286 00000+0 64604-4 0 9995 2 28890 98.2913 301.0879 0013357 284.8550 75.1172 14.63532322100601 HUANJING 1A (HJ-1A) 1 33320U 08041A 26167.82918701 .00000265 00000+0 37897-4 0 9992 2 33320 97.6675 153.6811 0019935 135.8836 224.3973 14.83982971958351 HUANJING 1B (HJ-1B) 1 33321U 08041B 26167.86555414 .00001074 00000+0 13600-3 0 9999 2 33321 97.6511 156.8888 0036078 181.9597 178.1482 14.83317417958362 YAOGAN-4 1 33446U 08061A 26167.76232080 .00000812 00000+0 10582-3 0 9994 2 33446 97.9308 101.2757 0015730 73.7274 286.5669 14.83199462945600 DEIMOS-1 1 35681U 09041A 26167.84723677 .00000244 00000+0 43088-4 0 9999 2 35681 97.7397 325.0891 0001606 130.6233 229.5117 14.75236664906833 UK-DMC 2 1 35683U 09041C 26167.81907558 .00001094 00000+0 16601-3 0 9994 2 35683 97.8838 302.7941 0001186 79.0726 281.0617 14.76028101906519 DMC3-FM1 1 40715U 15032A 26167.86862229 .00000692 00000+0 85591-4 0 9991 2 40715 97.6462 33.0569 0007094 60.6777 299.5147 14.85740320589869 DMC3-FM2 1 40716U 15032B 26167.89067699 -.00000063 00000+0 -13285-5 0 9999 2 40716 97.6516 34.6513 0007591 64.3201 295.8798 14.85742416589860 DMC3-FM3 1 40717U 15032C 26167.91400206 .00000512 00000+0 64845-4 0 9992 2 40717 97.6567 36.4265 0006751 64.9214 295.2701 14.85732669589876